Helicity
65 58 61 78 47 74 64 38 20 11 22 12 0 28 29 49 125 100 64 87 85 50 62 174 296 389 392 261 235 273 528 461 311 284 299 308 265 210 181 91 136 154 128 107 117 81 40 119 135 94 72 152 190 185
51 48 45 58 68 38 -12 15 21 26 25 36 1 7 39 69 98 56 59 105 56 157 149 170 191 294 185 297 398 541 323 356 297 283 258 212 192 205 174 180 109 117 113 103 141 93 123 116 109 145 124 153 144 154
34 46 51 25 83 33 13 20 14 28 29 57 57 29 19 148 98 35 132 107 156 287 263 233 188 278 234 51 108 217 157 189 196 191 149 115 122 130 147 119 164 131 170 121 112 118 160 238 231 190 177 164 127 107
15 45 45 44 59 -5 30 23 20 25 32 74 32 -5 77 106 83 185 123 187 175 266 225 284 244 160 69 40 42 12 88 145 115 123 130 101 35 165 101 72 122 94 122 178 168 180 204 180 189 209 236 241 253 209
-18 45 57 47 73 43 57 36 32 34 36 73 77 23 133 122 104 200 144 245 164 65 314 288 234 225 130 66 85 90 110 149 103 100 101 87 91 90 155 135 125 117 80 108 69 138 129 127 185 226 232 196 192 223
-6 21 16 60 94 54 53 43 37 43 36 64 112 90 149 122 104 68 254 267 249 197 361 381 211 236 134 113 117 106 116 119 114 95 97 107 136 58 112 106 127 115 94 85 37 133 106 151 194 171 168 138 117 143
-16 19 21 113 24 48 41 24 22 37 41 68 111 176 175 82 73 143 122 89 93 118 184 214 244 163 188 177 174 182 170 136 107 115 103 113 148 124 50 46 80 136 143 146 238 268 203 153 119 110 159 154 149 133
3 11 57 47 67 37 42 27 24 18 -10 64 236 141 106 88 120 180 257 150 131 128 136 201 188 177 182 184 189 222 190 172 162 125 129 110 132 104 48 77 124 140 176 208 216 132 166 195 182 150 159 166 170 153
57 82 37 85 77 56 50 28 21 22 35 146 251 139 128 134 195 179 152 168 56 57 119 149 164 142 123 153 176 174 125 126 140 130 123 123 121 75 38 101 118 119 122 166 159 152 177 183 130 123 135 131 148 124
82 78 127 103 88 83 58 27 39 36 83 148 162 206 164 61 210 189 94 128 113 96 88 115 130 109 101 110 110 90 86 93 83 89 95 100 79 74 68 85 101 97 154 196 195 137 124 95 102 106 105 108 98 89
33 55 44 40 55 52 52 57 54 78 133 238 319 213 220 169 131 204 165 167 172 167 126 108 95 100 92 74 82 55 54 66 66 67 81 84 66 53 70 99 90 99 136 98 63 59 54 96 100 103 105 102 98 105
43 36 42 48 51 54 45 39 78 98 146 199 151 160 159 169 128 141 213 164 166 129 139 112 126 90 99 70 73 78 83 85 64 78 104 52 56 69 112 92 76 83 99 83 61 60 65 69 83 93 99 103 138 151
33 45 49 42 58 74 43 83 129 74 77 160 212 194 152 148 156 167 180 160 123 88 62 67 96 55 57 61 70 78 72 56 67 73 65 46 61 89 110 106 85 66 71 63 41 47 49 48 79 109 121 142 203 180
54 37 34 8 -18 14 63 81 130 144 118 175 209 204 160 140 122 123 154 127 89 54 97 90 95 55 39 64 55 70 60 65 73 47 44 55 46 89 134 127 123 95 85 82 78 72 75 89 101 143 164 183 205 169
46 29 14 13 13 -9 44 131 116 145 206 160 156 142 109 100 116 109 132 132 161 105 115 113 88 57 82 64 60 63 73 63 39 55 59 38 65 120 158 161 174 175 177 160 137 132 124 144 165 172 159 162 157 172
74 81 56 22 19 24 72 136 151 162 195 163 135 113 138 132 118 131 151 179 175 151 120 92 84 77 77 56 65 75 69 44 44 63 62 69 97 118 146 149 151 152 159 154 132 131 141 151 161 149 164 148 140 156
125 135 -48 -34 73 116 159 141 118 81 92 131 126 118 86 132 113 116 109 150 169 157 161 131 89 74 61 79 88 82 66 68 54 62 83 72 75 84 105 118 118 123 130 125 130 124 121 145 180 193 161 119 125 122
150 -20 43 143 184 199 129 72 44 35 57 94 77 73 85 75 68 83 116 131 119 142 126 124 101 97 89 69 78 91 94 83 69 68 82 78 70 82 82 84 93 105 123 131 131 136 150 157 154 136 137 148 152 147
45 103 112 135 109 77 70 89 63 28 45 42 27 33 38 44 46 69 106 118 99 85 78 76 76 88 71 100 124 143 119 80 60 68 77 68 44 41 56 68 82 96 104 118 123 115 112 114 119 138 146 162 143 147
46 110 170 127 85 116 70 45 83 21 12 19 29 16 8 -7 13 37 45 69 77 77 69 74 98 91 116 129 118 99 97 111 81 89 96 81 67 59 48 51 60 67 84 96 101 101 105 102 99 109 131 146 154 141
71 170 151 92 71 71 61 68 68 35 28 15 5 11 9 13 15 21 17 27 22 36 67 77 55 54 33 60 70 77 71 70 86 95 111 98 91 97 80 67 66 74 85 95 98 90 96 105 109 110 127 134 142 154
92 87 69 75 54 65 50 63 37 34 41 33 46 36 26 16 15 17 -10 2 4 30 48 54 49 54 66 64 65 59 68 76 63 44 41 41 43 47 58 51 61 61 74 80 89 86 86 110 126 124 120 117 145 143
74 53 53 75 70 76 76 100 81 68 68 58 66 53 41 38 17 12 13 0 2 52 68 70 73 58 60 74 66 88 96 90 80 107 87 65 39 34 36 37 53 56 64 70 79 77 77 80 96 125 127 133 139 130
69 69 85 86 88 78 90 100 81 91 88 88 83 68 54 31 31 33 33 29 47 66 65 95 99 102 92 114 103 107 120 105 94 112 142 111 89 81 62 67 72 67 73 72 81 84 98 106 107 134 135 134 140 149
110 106 94 100 89 100 91 98 94 85 77 71 76 68 46 46 38 29 43 77 114 110 92 91 86 102 106 103 93 75 73 62 73 94 118 136 101 92 107 102 70 63 72 87 86 86 86 107 135 139 140 143 150 160
141 97 88 77 92 91 74 93 78 68 79 85 73 69 64 68 69 61 73 95 111 93 71 73 83 76 83 67 38 32 49 63 69 80 106 115 103 93 104 107 94 107 135 96 91 94 96 98 127 131 136 130 150 172
98 92 84 71 91 108 137 129 114 113 98 77 73 95 104 78 43 53 57 59 48 39 40 42 42 45 56 72 64 60 65 78 71 77 101 102 110 116 111 108 115 97 104 106 110 102 102 103 95 116 134 142 146 150
33 52 60 66 100 107 109 124 119 103 99 94 97 82 55 39 38 45 44 42 53 56 67 51 52 61 59 69 62 63 55 75 59 84 118 145 146 146 134 109 101 101 93 87 85 89 90 91 112 131 125 115 117 117
14 33 52 57 68 73 77 75 63 63 48 52 67 64 64 87 86 79 61 63 68 70 55 60 92 123 106 73 70 68 86 126 172 155 164 126 103 105 102 80 79 87 94 89 95 80 90 98 109 121 114 103 109 109
1 -23 -29 7 34 21 28 51 40 38 54 55 61 75 91 103 121 134 140 127 138 143 120 114 130 152 150 124 86 82 103 118 140 124 107 91 78 72 72 81 85 87 87 84 87 91 90 101 105 113 128 157 193 221
4 -8 -13 -16 -17 -11 38 67 67 64 63 71 95 88 99 113 138 184 216 177 147 153 153 153 161 195 192 170 135 101 100 121 122 133 122 99 90 88 86 83 79 74 79 93 102 114 120 126 126 161 197 242 269 265
13 -1 -2 8 22 36 63 55 42 29 70 84 91 112 123 145 147 148 162 148 131 145 148 153 171 182 190 158 163 122 100 97 118 127 130 114 100 87 78 81 76 79 93 116 129 141 169 201 245 280 313 322 310 290
58 70 67 67 59 30 35 60 52 100 159 146 137 133 147 132 122 112 108 130 91 102 120 120 120 125 127 131 144 137 107 93 99 101 98 99 102 101 91 88 80 85 107 125 145 161 190 220 226 231 233 232 227 220
Wind_Speed
30 35 36 41 39 30 38 37 39 40 35 32 38 43 42 38 38 37 52 54 53 58 55 48 44 27 22 19 33 16 24 37 32 40 52 41 43 40 36 30 25 29 29 35 33 38 49 6 12 20 23 20 15 18
33 35 35 36 41 23 40 31 35 36 33 37 42 41 38 37 40 37 45 48 49 45 39 33 26 19 26 25 13 23 24 19 27 37 47 50 40 33 26 30 23 34 30 23 42 47 38 27 26 18 15 15 18 20
36 36 37 43 43 33 23 28 35 36 37 41 43 35 32 42 39 39 41 45 26 22 19 20 22 35 21 3 15 7 16 25 32 36 36 38 36 32 24 28 24 29 33 36 35 32 22 14 15 15 16 19 19 19
39 33 39 39 53 43 20 34 36 34 35 43 40 30 36 33 35 37 28 33 28 15 24 24 25 19 27 5 2 11 15 31 39 42 35 32 30 41 35 27 31 34 30 28 32 19 17 15 12 13 17 20 22 23
41 34 36 46 52 20 29 34 33 31 36 39 38 33 40 33 32 26 24 24 28 22 27 13 4 14 1 6 5 4 3 19 31 35 38 37 31 28 26 25 31 36 30 28 32 2 22 4 9 13 14 16 19 22
45 41 47 45 49 24 30 31 29 31 36 36 35 43 38 36 31 19 17 15 10 13 11 20 12 9 12 8 8 10 20 27 34 36 36 34 31 34 35 35 37 37 30 21 30 9 9 12 13 13 14 15 18 21
56 48 41 54 22 21 24 23 25 29 29 29 35 44 43 38 30 29 24 23 23 20 16 20 21 20 22 15 18 20 23 31 37 39 41 40 37 36 38 38 30 24 20 16 11 14 13 14 12 16 16 20 22 24
57 57 53 34 21 20 18 18 20 20 20 31 41 30 25 23 26 21 18 20 24 15 19 25 23 22 24 23 25 27 25 27 30 35 37 37 39 40 46 26 17 15 10 8 7 16 13 19 21 20 21 22 22 22
60 54 39 26 22 19 15 18 24 27 30 42 35 28 26 23 29 25 26 26 18 22 24 27 24 33 22 23 23 25 26 28 35 31 32 32 34 43 34 7 6 2 12 5 9 13 21 23 22 21 20 20 19 22
53 33 32 22 22 15 13 20 28 26 28 36 30 31 32 26 33 30 22 24 25 25 24 22 20 22 16 20 23 24 27 24 23 29 28 30 36 42 8 3 3 5 4 10 14 18 23 24 23 20 19 20 23 26
37 40 37 26 18 16 23 23 26 31 30 38 39 35 37 33 26 26 28 28 27 24 24 22 14 9 22 21 20 25 22 24 18 25 21 32 41 35 10 4 1 2 9 13 14 17 21 23 23 21 20 21 23 24
37 41 35 27 21 14 12 14 32 33 33 33 28 30 30 28 27 30 30 29 27 27 24 15 14 17 20 21 23 27 27 26 25 23 21 31 39 24 7 8 6 7 13 14 16 20 21 22 21 19 17 17 19 20
43 35 26 24 18 15 10 33 33 27 27 27 27 28 30 30 32 34 36 31 26 26 20 16 14 20 22 24 24 26 25 25 22 24 26 33 30 10 8 7 5 5 12 15 16 18 20 21 20 17 14 11 15 17
41 42 34 32 30 12 6 12 26 29 26 25 29 30 32 33 31 33 33 31 27 22 10 11 18 24 26 27 26 26 26 22 25 27 26 29 15 7 9 8 5 6 11 15 15 17 20 19 18 16 12 9 11 13
44 40 30 20 12 6 12 18 20 24 22 24 26 32 32 30 26 24 25 25 27 21 15 18 24 26 27 27 28 25 24 26 27 29 31 24 11 6 7 7 4 3 4 6 8 13 15 15 15 12 6 3 4 5
38 17 23 11 18 15 12 21 23 21 20 23 26 26 24 23 25 23 21 20 25 23 21 24 27 30 32 27 29 28 23 28 29 29 28 18 9 9 11 10 6 4 2 3 5 7 9 10 11 7 3 4 5 2
10 34 61 49 16 25 26 21 18 19 22 24 25 21 16 19 24 27 27 27 29 24 29 31 31 33 26 31 30 30 30 28 24 26 27 23 12 12 16 15 13 9 6 5 5 5 5 7 7 5 0 6 14 14
31 59 21 25 28 22 14 17 17 18 16 16 17 17 17 21 24 27 29 27 25 25 28 29 31 29 30 30 29 29 23 22 24 24 25 24 21 20 20 19 18 16 13 10 8 7 7 5 3 1 5 9 20 24
29 29 42 36 26 20 13 15 15 12 12 11 12 14 15 17 19 20 19 20 21 23 26 29 29 30 30 28 25 23 25 28 28 28 27 26 24 23 23 24 23 22 19 16 14 12 11 10 12 10 10 12 18 26
11 4 16 35 42 26 13 12 13 11 13 13 13 11 11 13 16 17 17 20 22 26 28 30 31 30 27 28 28 27 29 30 26 28 28 28 27 25 25 26 28 29 28 25 23 23 22 21 18 17 16 16 20 25
11 18 17 17 17 12 13 18 14 12 12 13 13 16 15 17 17 18 20 26 25 29 29 26 23 26 23 26 30 30 31 31 31 31 33 32 30 29 30 31 32 33 33 30 28 28 27 26 24 21 20 20 23 28
26 24 23 23 21 22 21 22 18 17 19 17 19 20 21 22 24 27 30 29 29 30 30 30 34 35 35 37 35 33 36 38 38 38 34 30 33 36 35 33 34 36 36 36 35 34 33 30 26 23 22 21 24 28
24 25 25 28 26 27 25 28 23 24 22 23 24 26 29 29 32 35 32 33 33 35 34 36 39 38 40 37 34 37 41 43 45 45 43 47 41 39 38 35 34 37 40 40 36 36 36 32 27 23 22 25 27 29
27 27 29 31 30 29 28 28 26 26 26 27 30 34 33 34 37 38 39 40 38 37 39 42 42 39 38 38 38 41 44 46 48 47 50 49 48 48 43 41 37 38 40 42 39 38 37 35 31 28 25 26 28 31
26 31 31 31 29 27 27 27 28 29 33 30 32 35 35 36 43 46 47 44 40 40 42 43 42 41 41 42 44 46 47 49 52 51 48 46 46 45 44 41 39 42 40 39 42 42 42 39 31 28 27 30 33 32
29 31 30 29 27 27 24 28 27 27 27 33 35 35 37 42 50 53 46 41 39 42 45 46 47 45 44 45 50 53 53 52 51 46 45 44 43 43 45 45 43 42 47 44 43 44 44 42 36 31 33 34 35 36
29 31 30 30 31 30 30 30 29 31 35 37 35 37 40 46 46 41 34 38 38 40 40 43 38 41 42 47 47 46 46 47 45 44 39 35 37 38 39 42 44 43 46 45 44 44 46 48 49 43 36 38 37 35
28 29 28 32 31 32 32 33 34 35 34 35 29 34 35 35 34 31 32 36 39 38 32 35 39 41 41 39 41 46 47 48 38 25 26 32 36 40 42 42 44 45 46 47 49 49 48 47 47 46 40 38 37 34
22 30 32 29 30 28 28 27 27 31 35 36 31 30 30 32 35 35 36 37 37 36 36 39 40 38 36 37 40 43 44 42 34 28 33 37 40 45 48 48 49 50 52 52 51 47 45 44 43 45 47 42 35 35
26 28 28 20 23 29 33 32 27 28 32 30 27 29 32 32 36 37 38 39 39 39 38 39 41 40 41 41 41 42 43 42 40 38 40 42 46 50 53 54 55 55 55 55 53 50 43 43 43 43 41 39 36 36
23 25 25 27 29 14 23 27 28 26 32 36 37 35 32 31 36 40 42 43 42 42 43 44 44 45 45 45 45 44 43 44 42 42 43 44 46 50 52 53 54 53 52 52 51 50 43 42 40 39 39 37 35 35
17 19 18 17 16 19 21 19 17 13 31 35 34 34 30 37 41 42 49 48 46 48 49 48 46 46 47 42 43 37 36 39 41 43 45 46 48 49 49 50 50 49 48 48 47 44 41 37 36 35 35 35 34 35
26 21 20 20 16 12 14 19 19 29 36 35 37 35 39 37 38 39 41 45 44 51 51 49 45 43 42 39 40 39 38 40 42 42 43 45 47 47 45 45 45 45 44 42 42 40 39 36 35 35 35 35 36 37
Wind_Direction
219 222 225 229 225 222 232 237 240 243 249 251 249 252 256 268 276 272 241 237 232 227 231 244 245 232 230 183 164 192 243 253 251 245 244 255 260 260 271 269 247 251 258 262 271 273 268 323 326 327 342 7 18 8
221 221 224 225 226 227 227 235 239 241 247 247 244 251 258 265 266 268 249 244 244 250 256 263 259 262 252 248 186 250 260 241 256 251 252 249 261 264 264 264 268 254 260 267 260 261 280 287 313 343 16 31 14 10
223 222 224 226 226 219 221 233 234 238 244 242 242 253 258 252 253 258 254 236 243 241 258 255 236 249 261 151 133 226 258 242 259 259 253 259 267 274 260 263 256 254 253 263 266 284 312 324 351 11 25 21 25 26
227 226 224 223 217 220 216 227 229 237 242 235 235 248 239 243 248 226 221 234 237 241 236 243 257 262 253 152 189 284 262 253 252 249 254 257 262 249 249 254 250 255 258 261 278 304 324 337 3 27 28 27 27 26
224 224 218 220 218 200 218 223 230 236 235 234 234 237 223 232 216 231 238 245 234 241 207 214 297 275 338 103 65 357 233 252 244 239 244 245 250 257 256 256 257 255 267 276 292 219 315 69 52 57 49 45 40 32
216 214 209 214 211 204 218 225 231 232 231 228 230 217 229 228 223 228 222 229 200 211 209 218 276 329 353 22 16 295 264 250 243 242 243 246 253 258 253 258 265 266 276 299 305 99 12 86 77 63 57 49 44 42
207 207 214 207 181 202 213 221 223 225 227 224 217 222 229 227 236 234 226 222 244 242 238 246 259 283 271 296 287 272 261 245 242 241 243 246 255 259 260 264 270 285 302 323 53 67 53 89 69 85 69 57 64 60
199 199 203 195 170 189 201 210 215 217 217 206 209 216 214 223 220 220 243 259 259 268 270 255 266 268 277 266 260 264 261 261 264 256 254 258 259 261 260 276 281 297 334 24 36 336 75 90 85 79 81 76 69 60
193 202 178 152 171 187 194 204 211 211 215 209 217 220 219 226 214 225 253 254 273 273 265 262 247 247 274 268 268 268 272 267 260 268 266 266 267 263 272 268 260 155 308 25 3 54 95 102 97 94 91 87 76 85
199 157 137 157 177 174 185 205 209 212 217 217 223 219 218 225 232 250 256 257 267 273 273 257 256 251 260 266 269 272 275 280 290 276 277 280 271 264 295 156 129 295 43 90 86 99 110 113 113 107 103 100 102 108
144 118 118 127 142 185 210 212 212 211 219 213 215 221 211 223 242 256 252 255 259 262 258 255 251 239 265 268 273 287 291 290 308 293 295 284 269 264 261 226 143 69 98 97 85 94 113 115 116 111 107 110 111 110
124 114 111 111 118 146 168 188 205 213 216 223 219 214 219 236 248 253 249 254 259 256 259 242 247 264 274 283 288 284 289 293 301 296 301 291 271 266 190 162 150 118 108 104 96 106 110 114 113 109 104 105 112 105
111 108 110 105 106 116 148 208 209 206 209 210 213 223 237 250 244 245 239 248 255 249 248 241 254 273 280 291 292 294 301 303 306 305 300 285 278 259 186 185 191 127 110 111 100 106 111 113 108 106 99 92 103 108
104 101 99 100 96 107 138 206 206 212 217 221 228 228 241 245 253 252 246 244 252 254 221 250 272 280 283 288 295 301 304 312 307 305 302 286 276 231 223 213 170 140 124 117 112 114 118 116 111 106 110 103 105 117
99 98 98 103 112 121 210 216 223 225 240 247 252 246 250 250 256 261 255 247 245 243 250 267 281 289 285 293 295 304 305 305 303 297 294 285 273 221 215 225 207 141 110 88 91 112 120 118 117 111 100 87 83 95
96 111 195 170 203 214 228 219 229 240 266 268 265 254 255 251 250 256 256 249 252 255 266 283 282 285 284 292 293 293 301 301 300 293 291 292 277 249 249 259 266 280 313 29 62 87 101 112 120 111 66 304 303 308
150 187 120 106 209 213 215 228 240 265 274 273 260 269 273 259 256 253 256 258 261 263 263 277 278 281 291 287 289 288 291 297 305 298 291 286 285 275 275 282 287 290 304 331 360 30 51 39 44 39 158 286 294 298
154 115 100 195 195 213 244 261 280 286 278 276 267 276 275 264 264 263 259 267 265 266 272 279 281 285 285 287 290 287 295 305 307 301 298 294 292 289 288 291 292 296 303 315 331 344 351 357 356 321 324 309 299 297
143 163 158 170 192 220 264 276 269 267 280 282 283 281 284 285 288 282 279 282 279 277 277 279 288 286 288 288 291 301 303 297 293 294 298 301 301 298 300 298 298 300 305 311 317 321 325 326 328 332 326 315 302 300
71 192 197 165 155 194 257 274 261 291 264 266 280 296 304 307 297 297 296 292 289 284 281 286 287 285 287 290 299 305 305 301 303 300 300 303 306 309 308 306 302 301 305 309 315 321 324 325 328 329 323 314 306 301
252 231 227 223 223 295 274 251 281 292 293 294 305 303 308 303 311 311 308 298 301 292 288 293 299 305 316 315 313 308 308 307 304 304 303 304 309 311 310 308 306 304 304 307 311 316 319 320 326 326 322 317 312 309
245 265 254 267 292 289 313 298 308 313 301 298 302 309 306 305 305 306 303 316 311 305 302 299 296 298 300 301 306 308 305 303 303 304 308 315 308 305 308 310 309 307 306 308 310 313 317 321 324 324 322 316 314 313
289 301 321 318 315 309 304 295 316 314 303 296 305 304 303 303 306 305 309 314 313 311 308 302 299 301 296 304 308 308 307 304 299 301 300 297 303 307 309 309 309 310 308 309 314 316 318 323 326 325 324 324 320 315
304 308 317 312 315 313 318 310 323 311 310 303 301 297 303 305 308 306 304 309 315 314 310 305 305 300 303 307 306 305 308 308 305 302 302 299 300 303 305 304 307 308 311 313 314 315 317 320 323 326 327 324 319 317
315 310 316 317 323 322 316 312 310 308 299 304 300 302 307 312 304 298 299 307 312 313 312 310 308 307 301 299 302 304 309 308 303 301 306 308 307 309 310 309 309 311 315 315 316 318 320 322 321 321 323 321 318 316
310 313 313 314 314 317 323 308 307 308 313 302 304 310 312 308 299 297 307 310 311 312 313 312 307 303 301 303 302 303 304 308 306 303 310 313 314 312 309 308 308 313 319 319 319 320 323 325 325 321 319 319 318 316
318 317 316 315 312 310 309 311 312 308 301 300 308 309 308 304 303 312 323 322 320 319 319 316 318 314 309 307 313 317 317 316 313 309 316 325 328 328 326 319 315 320 322 325 326 325 324 324 322 321 319 322 321 320
343 333 328 314 310 305 304 303 303 302 306 310 316 310 312 313 317 327 329 325 321 324 334 328 321 317 316 321 323 322 320 318 323 337 342 339 334 330 328 327 326 325 324 323 323 324 325 326 325 326 326 324 326 327
43 336 322 324 315 319 312 313 312 301 290 289 304 310 316 316 305 304 306 306 311 318 320 315 313 320 330 334 333 330 326 325 325 320 318 318 319 320 320 320 320 320 320 322 326 330 331 333 334 332 330 329 329 331
138 159 139 75 353 303 286 289 309 310 302 311 320 316 311 309 299 298 306 309 316 321 326 328 325 324 324 326 325 327 333 332 328 320 314 313 314 316 318 318 318 319 320 322 325 328 332 334 335 336 337 340 342 343
89 99 122 139 151 88 336 322 322 329 313 305 302 309 316 320 310 313 315 316 319 319 320 322 325 325 323 322 321 322 322 327 328 327 324 322 321 321 322 324 326 327 328 328 329 330 332 333 336 339 341 342 344 345
87 121 107 95 70 21 360 5 17 36 325 318 321 319 325 318 313 315 314 316 319 318 317 319 320 321 322 326 328 333 337 333 329 329 329 328 328 328 329 331 333 335 337 338 339 342 345 346 345 347 349 351 352 353
357 2 3 4 15 34 20 356 354 336 322 321 321 322 316 320 321 322 326 328 329 322 318 318 317 319 321 329 329 331 332 331 331 331 333 335 335 335 337 339 342 343 345 347 350 352 353 356 357 358 357 356 355 354